Location: Kempten-Allg�u
(47.7257°N, 10.3110°E)
Time: 02:28:11
(UTC+01:00)

ISS - Visible Passes

Search period start: 08 December 2021 00:00
Search period end: 18 December 2021 00:00
Orbit: 417 x 422 km, 51.6° (Epoch: 07 December)

Date Brightness Start Highest point End Pass type
(mag) Time Alt. Az. Time Alt. Az. Time Alt. Az.
08 Dec -0.9 18:04:38 10° W 18:07:02 18° SW 18:09:26 10° S visible
09 Dec -1.4 17:16:52 10° W 17:19:48 27° SW 17:22:43 10° SSE visible
11 Dec -0.2 17:20:11 10° WSW 17:21:26 12° SW 17:22:40 10° SSW visible
